www.pogodaiklimat.ru

Погода и климат >> Архив погоды >> Оман >> Ибри


ПОГОДА в Ибри

  • Прогноз погоды в Ибри
  • Монитор погоды в Ибри

АРХИВ ПОГОДЫ в Ибри

Время (UTC), дата Ветер
(напр.,м/с)
 
Видим.   Явления Облачность Т
(С)
Тd
(С)
f
(%)
Тe
(С)
Тes
(С)
Комфортность P
(гПа)
Po
(гПа)
Тmin
(С)
Tmax
(С)
R
(мм)
R24
(мм)
S
(см)
15 12.06 СВ 6 7000 м пыль 3/0
[Ci fib]
+43.5 -1.9 6 +40 +40 очень
жарко
994.3 960.5
18 12.06 В 6 7000 м пыль 3/0
[Ci fib]
+39.7 +2.4 10 +36 +36 очень
жарко
996.8 962.5 +46.6
21 12.06 В 3 7000 м пыль ясно +37.3 +4.3 13 +34 +34 очень
жарко
997.1 962.6
00 13.06 В 2 н/о н/о +34.2 +13.8 29 +35 +35 очень
жарко
996.7 962.4
03 13.06 В 3 7000 м мгла 3/0
[Ci fib]
+34.6 +12.9 27 +35 +37 очень
жарко
998.9 964.1
06 13.06 ЮВ 3 8000 м мгла 3/0
[Ci fib]
+40.2 +11.4 18 +39 +52 опасность
солнечного
удара
998.6 964.4 +33.2
09 13.06 СВ 2 8000 м мгла 3/0
[Ci fib]
+45.0 -0.8 6 +41 +61 опасность
перегрева
996.5 962.8
12 13.06 СВ 4 н/о н/о +46.1 -3.9 5 +42 +42 опасность
перегрева
993.6 960.5
15 13.06 СВ 4 10 км 3/0
[Ci fib]
+43.8 -4.1 5 +40 +40 очень
жарко
994.9 961.1
18 13.06 В 4 10 км 3/0
[Ci fib]
+39.7 -4.6 6 +35 +35 очень
жарко
996.7 962.4 +46.7
21 13.06 Ю 6 10 км 1/0
[Ci fib]
+35.4 +2.8 13 +32 +32 жарко 997.8 963.0
00 14.06 ЮВ 2 10 км ясно +32.1 +2.3 15 +29 +29 жарко 998.4 963.2
03 14.06 ЮВ 2 8000 м мгла 1/0
[Ci fib]
+32.5 +6.0 19 +30 +33 жарко 999.9 964.8
06 14.06 Ю 3 8000 м мгла ясно +39.0 +3.2 11 +36 +49 очень
жарко
999.6 965.2 +30.3
09 14.06 ЮВ 2 н/о н/о +43.6 +4.0 9 +40 +40 очень
жарко
996.8 963.4
12 14.06 С 3 10 км ясно +44.9 +3.1 8 +42 +49 опасность
перегрева
994.9 961.2
15 14.06 З 4 н/о н/о +43.9 +2.7 8 +40 +40 очень
жарко
994.5 961.2
18 14.06 З 1 н/о н/о +38.2 +4.0 12 +35 +35 очень
жарко
996.7 962.7 +46.0
21 14.06 ЮВ 4 н/о н/о +35.9 +4.6 14 +33 +33 жарко 996.6 962.4
00 15.06 ЮВ 5 н/о н/о +33.6 +8.9 22 +32 +32 жарко 997.1 962.7
03 15.06 ЮВ 3 н/о н/о +33.1 +8.8 22 +32 +32 жарко 998.9 964.3
06 15.06 Ю 5 9000 м мгла ясно +39.6 +10.9 18 +38 +48 очень
жарко
999.0 964.7 +32.1
09 15.06 ЮЗ 3 10 км ясно +43.1 +9.9 14 +42 +59 опасность
перегрева
997.3 963.4
12 15.06 З 4 9000 м мгла 4/0
[Ci ing]
+45.2 +6.5 10 +43 +48 опасность
перегрева
995.0 961.4
15 15.06 З 4 9000 м мгла 4/0
[Ci ing]
+43.9 +5.6 10 +41 +41 опасность
перегрева
995.3 961.5
18 15.06 н/о н/о +39.8 +4.3 11 996.7 962.9 +45.8
21 15.06 н/о н/о +37.1 +3.9 13 996.4 962.3
00 16.06 ЮВ 2 н/о н/о +34.3 +5.8 17 +32 +32 жарко 996.2 961.9
03 16.06 Ю 1 н/о н/о +34.7 +8.0 19 +33 +33 жарко 998.0 963.6
06 16.06 СВ 2 н/о н/о +43.2 +10.2 14 +42 +42 опасность
перегрева
997.3 963.9 +33.3
09 16.06 СВ 4 н/о н/о +46.8 +3.7 8 +44 +44 опасность
перегрева
995.4 962.3
12 16.06 С 3 н/о н/о +46.2 +4.3 8 +43 +43 опасность
перегрева
993.7 960.6
15 16.06 СВ 4 7000 м мгла 6/0
[Ac trans Ci fib]
+43.6 +2.2 8 +40 +40 очень
жарко
995.5 961.7
18 16.06 В 4 8000 м мгла 3/0
[Ci fib]
+40.0 +8.5 15 +38 +38 очень
жарко
997.1 962.9 +47.2
21 16.06 В 2 н/о н/о +37.0 +10.6 20 +36 +36 очень
жарко
997.5 963.4
00 17.06 В 1 н/о н/о +33.3 +18.3 41 +38 +38 очень
душно
997.5 963.1
03 17.06 В 4 н/о н/о +34.6 +18.2 38 +39 +39 очень
душно
999.0 964.7
06 17.06 ЮВ 3 н/о н/о +41.3 +12.0 18 +41 +41 опасность
перегрева
998.9 965.2 +32.8
09 17.06 С 4 8000 м мгла 4/0
[Ci fib]
+46.5 +4.3 8 +43 +58 опасность
перегрева
997.0 963.4
12 17.06 СЗ 7 н/о н/о +48.2 -1.2 5 +44 +44 опасность
перегрева
993.9 961.0
15 17.06 З 7 н/о н/о +45.6 -3.3 5 +42 +42 опасность
перегрева
994.2 961.1
18 17.06 С 5 н/о н/о +41.9 -3.0 6 +38 +38 очень
жарко
996.6 963.0 +48.6
21 17.06 ЮЗ 1 9000 м пыль 5/0
[Ac lent]
+35.5 -0.7 10 +32 +32 жарко 997.0 962.2
00 18.06 ЮЗ 1 н/о н/о +33.0 +12.0 28 +33 +33 жарко 996.9 962.4
03 18.06 З 2 н/о н/о +33.1 +15.5 35 +35 +35 душно 997.8 963.4
06 18.06 Ю 3 н/о н/о +39.6 +17.0 27 +42 +42 опасность
перегрева
997.1 963.3 +30.6
09 18.06 Ю 3 н/о н/о +45.6 +11.9 14 +45 +45 опасность
перегрева
994.5 961.4
12 18.06 З 6 н/о н/о +47.8 +2.3 7 +45 +45 опасность
перегрева
992.3 959.5
15 18.06 СВ 4 н/о н/о +45.1 +6.7 10 +43 +43 опасность
перегрева
992.9 959.7
18 18.06 СЗ 9 н/о н/о +39.4 +19.4 31 +44 +44 опасность
перегрева
994.7 961.1 +48.3
21 18.06 СЗ 6 н/о н/о +36.3 +12.8 24 +36 +36 очень
жарко
994.5 960.5
00 19.06 С 2 н/о н/о +32.1 +16.1 38 +35 +35 очень
душно
995.3 960.8
03 19.06 СЗ 3 н/о н/о +31.0 +20.9 55 +38 +38 очень
душно
996.6 962.0
06 19.06 СЗ 7 н/о н/о +39.2 +11.2 19 +38 +38 очень
жарко
995.9 962.1 +30.1
09 19.06 СЗ 6 н/о н/о +43.0 +5.1 10 +40 +40 очень
жарко
994.4 961.0
12 19.06 З 7 н/о н/о +45.0 -0.6 6 +41 +41 опасность
перегрева
992.1 959.0

 

Местоположение метеостанции Ибри (Оман): широта 23.42 долгота 56.52 высота над уровнем моря 244 м.

В архиве по умолчанию представлена погода в Ибри за последнюю неделю. Архивные данные за месяц целиком и за предыдущие месяцы, начиная с января 2011 года, Вы можете получить, выбрав интересующий диапазон дат из раскрывающегося списка и нажав кнопку "Ввод!".


*Определитесь, кто Вы:
робот инопланетянин человек

Внимание! Время в таблицах - всемирное. Для получения местного времени необходимо прибавить поправку, которая равна 4 ч.

Смотрите также архив погоды в соседних городах и на ближайших метеорологических станциях:

Погода в Кумейре (Оман) (65 км)
Погода на Эш-Шам (Оман) (79 км)
Погода в Эс-Сувейке (Оман) (88 км)
Погода в Рустаке (Оман) (92 км)
Погода в Бахле (Оман) (94 км)
Погода в Сухаре (Оман) (117 км)
Погода в Эль-Бурайми (Оман) (117 км)
Погода в Саике (Оман) (120 км)
Погода в Назве (Оман) (121 км)
Погода в Фахуде (Оман) (121 км)

Пояснения к столбцам:

Ветер - указаны скорость ветра в м/с - средняя за 10 мин, порывы в срок и между сроками (в фигурных скобках) и направление, откуда дует ветер: С - северный, СВ - северо-восточный, В - восточный, ЮВ - юго-восточный, Ю - южный, ЮЗ - юго-западный, З - западный, СЗ - северо-западный.
Видимость - горизонтальная дальность видимости в метрах или километрах. При видимости от 1 до 10 км при отсутствии осадков обычно наблюдается дымка, при ухудшении видимости до 1 км и менее - туман. В сухую погоду видимость может ухудшаться дымом, пылью или мглою.
Явления - указаны атмосферные явления, наблюдавшиеся в срок или в последний час перед сроком; фигурными скобками обозначены явления, наблюдавшиеся между сроками (за 1-3 часа до срока); квадратными скобками обозначены град или гололедные отложения с указанием их диаметра в мм.
Облачность - указаны через наклонную черту общая и нижняя облачность в баллах и высота нижней границы облаков в метрах; квадратными скобками обозначены формы облаков: Ci - перистые, Cs - перисто-слоистые, Cc - перисто-кучевые, Ac - высококучевые, As - высокослоистые, Sc - слоисто-кучевые, Ns - слоисто-дождевые, Cu - кучевые, Cb - кучево-дождевые. Подробнее классификацию облаков см. в Атласе облаков (PDF).
T - Температура воздуха - температура, измеренная на высоте 2 м над землей.
Td - Температура точки росы - температура, при понижении до которой содержащийся в воздухе водяной пар достигнет насыщения.
f - Относительная влажность воздуха - влажноcть воздуха, измеренная на высоте 2 м над землей.
Te - Эффективная температура - температура, которую ощущает одетый по сезону человек в тени. Характеристика душности погоды. При расчете учитывается влияние влажности воздуха и скорости ветра на теплоощущения человека.
Tes - Эффективная температура на солнце - температура, которую ощущает человек, с поправкой на солнечный нагрев. Характеристика знойности погоды. Зависит от высоты солнца над горизонтом, облачности и скорости ветра. Ночью, в пасмурную погоду, а также при ветре 12 м/с и более поправка равна нулю.
P - Атмосферное давление - приведенное к уровню моря атмосферное давление.
Po - Атмосферное давление - измеренное на уровне метеостанции атмосферное давление.
Tmin - Минимальная температура - минимум температуры воздуха на высоте 2 м над землей.
Tmax - Максимальная температура - максимум температуры воздуха на высоте 2 м над землей.
R - Количество осадков - Количество выпавших осадков за период времени, мм. При наведении курсора мыши на число - период времени, за который выпало указанное количество осадков.
R24 - Количество осадков - Количество выпавших осадков за 24 часа, мм.
S - Снежный покров - Высота снежного покрова, см. При наведении курсора мыши на число - состояние снежного покрова и степень покрытия местности в баллах.